Ahmedabad, India

11:48 AM IST on October 19, 2017 (GMT +0530)
Ahmedabad

Weather History for VAAH - September, 2012

Change the Weather History Date:

Thursday, September 27, 2012

  Actual Average Record
Temperature  
Mean Temperature 85 °F -  
Max Temperature 95 °F 92 °F 100 °F (2000)
Min Temperature 75 °F 71 °F 75 °F (2005)
Cooling Degree Days 20    
Growing Degree Days 35 (Base 50)    
Moisture  
Dew Point 74 °F    
Average Humidity 70    
Maximum Humidity 89    
Minimum Humidity 45    
Precipitation  
Precipitation 0.00 in 0.04 in - ()
Sea Level Pressure  
Sea Level Pressure 29.88 in    
Wind  
Wind Speed 2 mph ()    
Max Wind Speed 6 mph    
Max Gust Speed -    
Visibility 2.8 miles    
Events Rain    
Averages and records for this station are not official NWS values.
T = Trace of Precipitation, MM = Missing Value Source: Averaged Metar Reports

Daily Weather History Graph

Daily Weather History Graph

Search for Another Location

Airport or City:

Trip Planner

Search our weather history database for the weather conditions in past years. The results will help you decide how hot, cold, wet, or windy it might be!

Date:

Astronomy

Sep. 27, 2012 Rise Set
Actual Time 6:29 AM IST 6:30 PM IST
Civil Twilight 6:07 AM IST 6:53 PM IST
Nautical Twilight 5:41 AM IST 7:19 PM IST
Astronomical Twilight 5:15 AM IST 7:45 PM IST
Moon 4:35 PM IST (9/27) 3:46 AM IST (9/27)
Length of Visible Light 12h 45m
Length of Day
12h 00m
Waxing Gibbous, 91% of the Moon is Illuminated
Sep 27
Waxing Gibbous
Sep 30
Full
Oct 8
Last Quarter
Oct 15
New
Oct 22
First Quarter

Hourly Weather History & Observations

Time (IST) Temp. Heat Index Dew Point Humidity Pressure Visibility Wind Dir Wind Speed Gust Speed Precip Events Conditions
12:10 AM 80.6 °F 83.2 °F 68.0 °F 65% 29.89 in 2.5 mi Calm Calm - N/A   Haze
12:40 AM 80.6 °F 83.2 °F 68.0 °F 65% 29.89 in 2.5 mi Calm Calm - N/A   Haze
1:10 AM 80.6 °F 83.9 °F 69.8 °F 70% 29.89 in 2.5 mi Calm Calm - N/A   Haze
1:40 AM 80.6 °F 83.9 °F 69.8 °F 70% 29.86 in 2.5 mi Calm Calm - N/A   Haze
2:10 AM 80.6 °F 83.9 °F 69.8 °F 70% 29.86 in 2.5 mi Calm Calm - N/A   Haze
2:30 AM 79 °F - 75 °F 83% 29.88 in 2 mi NW 3.5 mph - -   Haze
2:40 AM 78.8 °F - 68.0 °F 69% 29.86 in 2.5 mi Calm Calm - N/A   Haze
3:10 AM 78.8 °F - 68.0 °F 69% 29.86 in 2.5 mi Calm Calm - N/A   Haze
3:40 AM 78.8 °F - 68.0 °F 69% 29.86 in 2.5 mi Calm Calm - N/A   Haze
4:10 AM 78.8 °F - 68.0 °F 69% 29.86 in 2.5 mi Calm Calm - N/A   Haze
4:40 AM 78.8 °F - 68.0 °F 69% 29.86 in 2.5 mi Calm Calm - N/A   Haze
5:30 AM 77 °F - 74 °F 86% 29.88 in 1 mi NW 3.5 mph - -   Haze
5:40 AM 78.8 °F - 68.0 °F 69% 29.86 in 2.5 mi Calm Calm - N/A   Haze
6:10 AM 78.8 °F - 66.2 °F 65% 29.89 in 2.5 mi West 3.5 mph - N/A   Haze
6:40 AM 77.0 °F - 66.2 °F 69% 29.89 in 2.5 mi WNW 3.5 mph - N/A   Haze
7:10 AM 77.0 °F - 66.2 °F 69% 29.92 in 2.5 mi Calm Calm - N/A   Haze
8:10 AM 80.6 °F 83.9 °F 69.8 °F 70% 29.92 in 2.5 mi NW 5.8 mph - N/A   Haze
8:30 AM 82 °F - 75 °F 73% 29.93 in 2 mi WNW 2.3 mph - -   Haze
9:10 AM 84.2 °F 89.6 °F 71.6 °F 66% 29.95 in 3.1 mi NNW 5.8 mph - N/A   Haze
9:40 AM 86.0 °F 95.1 °F 75.2 °F 70% 29.95 in 3.7 mi NE 5.8 mph - N/A   Unknown
10:10 AM 87.8 °F 97.6 °F 75.2 °F 66% 29.95 in 3.7 mi NNE 5.8 mph - N/A   Unknown
10:40 AM 89.6 °F 104.7 °F 78.8 °F 70% 29.92 in 3.7 mi NNE 5.8 mph - N/A   Unknown
11:10 AM 91.4 °F 111.0 °F 80.6 °F 71% 29.92 in 3.7 mi ENE 5.8 mph - N/A   Partly Cloudy
11:30 AM 89 °F - 73 °F 51% 29.93 in 2 mi Calm Calm - -   Partly Cloudy
11:40 AM 93.2 °F 117.1 °F 82.4 °F 71% 29.92 in 3.7 mi NNW 5.8 mph - N/A   Partly Cloudy
12:10 PM 93.2 °F 117.1 °F 82.4 °F 71% 29.89 in 3.7 mi NNW 4.6 mph - N/A   Partly Cloudy
12:40 PM 95.0 °F 123.7 °F 84.2 °F 71% 29.89 in 3.7 mi NNW 4.6 mph - N/A   Scattered Clouds
1:10 PM 95.0 °F 123.7 °F 84.2 °F 71% 29.86 in 3.7 mi Variable 3.5 mph - N/A   Scattered Clouds
1:40 PM 95.0 °F 123.7 °F 84.2 °F 71% 29.86 in 3.7 mi NNW 5.8 mph - N/A   Scattered Clouds
2:10 PM 95.0 °F 123.7 °F 84.2 °F 71% 29.83 in 3.7 mi SSW 5.8 mph - N/A   Scattered Clouds
2:30 PM 93 °F - 74 °F 45% 29.87 in 2 mi West 3.5 mph - -   Partly Cloudy
2:40 PM 96.8 °F 126.0 °F 84.2 °F 67% 29.83 in 3.7 mi SSW 5.8 mph - N/A   Scattered Clouds
3:10 PM 96.8 °F 130.7 °F 86.0 °F 71% 29.83 in 3.7 mi SSW 4.6 mph - N/A   Scattered Clouds
4:10 PM 95.0 °F 119.6 °F 82.4 °F 67% 29.80 in 3.7 mi Calm Calm - N/A   Scattered Clouds
4:40 PM 93.2 °F 113.6 °F 80.6 °F 67% 29.80 in 3.7 mi Calm Calm - N/A   Scattered Clouds
5:10 PM 89.6 °F 102.2 °F 77.0 °F 66% 29.80 in 3.7 mi NNE 5.8 mph - N/A   Partly Cloudy
5:30 PM 85 °F - 74 °F 62% 29.85 in 1 mi West 4.6 mph - - Rain Light Rain
6:40 PM 84.2 °F 90.9 °F 73.4 °F 70% 29.83 in 2.5 mi SW 3.5 mph - N/A   Haze
7:10 PM 84.2 °F 90.9 °F 73.4 °F 70% 29.83 in 2.5 mi North 3.5 mph - N/A   Haze
7:40 PM 82.4 °F 87.2 °F 71.6 °F 70% 29.86 in 2.5 mi Calm Calm - N/A   Haze
8:10 PM 84.2 °F 89.6 °F 71.6 °F 66% 29.86 in 2.5 mi Calm Calm - N/A   Haze
8:30 PM 78 °F - 75 °F 89% 29.88 in 2 mi Calm Calm - -   Haze
8:40 PM 82.4 °F 87.2 °F 71.6 °F 70% 29.86 in 2.5 mi Calm Calm - N/A   Haze
9:40 PM 82.4 °F 87.2 °F 71.6 °F 70% 29.89 in 2.5 mi Calm Calm - N/A   Haze
10:10 PM 82.4 °F 87.2 °F 71.6 °F 70% 29.89 in 2.5 mi Calm Calm - N/A   Haze
10:40 PM 80.6 °F 83.9 °F 69.8 °F 70% 29.89 in 2.5 mi Calm Calm - N/A   Haze
11:10 PM 80.6 °F 83.9 °F 69.8 °F 70% 29.86 in 2.5 mi Calm Calm - N/A   Haze
11:30 PM 78 °F - 75 °F 88% 29.88 in 2 mi Calm Calm - -   Haze